Weather observations for the past three days for
Rogue Valley International Airport
Metric (Imperial)
Date Time (pdt) Wind (kph) Vis. (km) Weather Sky Cond. Temperature (ºC) Relative Humidity Wind Chill (°C) Heat Index (°C) Pressure Precipitation (cm)
Air Dwpt 6 hour altimeter (cm) sea level (mb) 1 hr 3 hr 6 hr
Max. Min.
21 10:53 SW 6 16.09 Fair CLR 25.6 10 25.6 15.6 37% 26 75.92 1011.1
21 09:53 Calm 16.09 Fair CLR 23.3 9.4 41% 75.97 1011.8
21 08:53 Calm 16.09 Fair CLR 20.6 9.4 49% 76.02 1012.4
21 07:53 N 7 16.09 Fair CLR 17.8 10 60% 76.02 1012.5
21 06:53 NW 7 16.09 Smoke CLR 16.7 10 65% 76 1012.0
21 05:53 Calm 16.09 Smoke CLR 16.1 8.9 63% 75.97 1011.8
21 04:53 Calm 16.09 Fair CLR 15.6 8.9 23.3 15 65% 75.97 1011.6
21 03:53 Calm 16.09 Fair CLR 16.1 8.9 63% 75.95 1011.5
21 02:53 NW 6 16.09 Fair CLR 17.8 9.4 58% 75.95 1011.3
21 01:53 Calm 16.09 Fair CLR 18.9 9.4 54% 75.95 1011.4
21 00:53 Calm 16.09 Fair CLR 20.6 8.9 47% 75.95 1011.2
20 23:53 Calm 16.09 Fair CLR 21.7 8.9 44% 75.95 1011.2
20 22:53 Calm 16.09 Fair CLR 22.8 9.4 33.9 22.8 43% 75.92 1011.0
20 21:53 Calm 16.09 Fair CLR 23.9 8.9 39% 25 75.9 1010.7
20 20:53 NW 13 16.09 Fair CLR 25 8.3 35% 26 75.82 1009.9
20 19:53 NW 13 16.09 Fair CLR 28.9 7.8 27% 28 75.77 1009.1
20 18:53 NW 20 16.09 Fair CLR 31.7 7.2 22% 30 75.72 1008.4
20 17:53 NW 19 16.09 Fair CLR 32.8 7.8 21% 31 75.72 1008.1
20 16:53 W 22 16.09 Fair CLR 33.9 6.7 33.9 23.9 18% 32 75.72 1008.2
20 15:53 W 13 16.09 Fair CLR 32.8 7.2 20% 31 75.74 1008.5
20 14:53 Vrbl 6 16.09 Fair CLR 31.7 6.7 21% 30 75.77 1009.0
20 13:53 Vrbl 6 16.09 Fair CLR 30 5 20% 28 75.84 1010.1
20 12:53 Calm 16.09 Fair CLR 27.8 5.6 24% 27 75.92 1011.0
20 11:53 NW 11 16.09 Fair CLR 27.2 7.2 28% 26 75.97 1011.5
20 10:53 Calm 16.09 Fair CLR 23.3 8.3 23.9 12.8 38% 76 1012.3
20 09:53 SW 7 16.09 Fair CLR 20.6 7.8 44% 76.05 1012.8
20 08:53 Vrbl 6 16.09 Fair CLR 18.3 7.2 49% 76.07 1013.3
20 07:53 Calm 16.09 Fair CLR 16.1 7.2 56% 76.05 1013.0
20 06:53 Calm 16.09 Fair CLR 15 7.2 60% 76.05 1012.7
20 05:53 Calm 16.09 Fair CLR 13.9 7.2 64% 76.02 1012.3
20 04:53 NE 6 16.09 Fair CLR 13.9 7.2 21.7 13.3 64% 76 1012.0
20 03:53 Calm 16.09 Fair CLR 13.9 7.2 64% 75.97 1011.7
20 02:53 NE 6 16.09 Fair CLR 15 7.2 60% 75.97 1011.7
20 01:53 Calm 16.09 Fair CLR 16.7 6.7 52% 75.97 1011.7
20 00:53 Calm 16.09 Fair CLR 17.8 7.2 50% 75.95 1011.6
19 23:53 Calm 16.09 Fair CLR 20 6.7 42% 75.97 1011.7
19 22:53 Calm 16.09 Fair CLR 21.7 7.2 31.7 20.6 39% 75.95 1011.7
19 21:53 NE 6 16.09 Fair CLR 23.3 6.1 33% 75.92 1011.3
19 20:53 N 15 16.09 Fair CLR 23.9 5.6 31% 25 75.84 1010.4
19 19:53 N 19 16.09 Fair CLR 27.8 5 23% 27 75.74 1009.0
19 18:53 W 20 16.09 Fair CLR 30 1.7 16% 28 75.72 1008.5
19 17:53 W 20 16.09 Fair CLR 30.6 2.2 16% 29 75.72 1008.5
19 16:53 NW 13 G 26 16.09 Fair CLR 31.1 2.8 31.7 20.6 16% 29 75.72 1008.6
19 15:53 W 20 G 28 16.09 Fair CLR 30.6 1.1 15% 29 75.74 1008.7
19 14:53 NW 22 16.09 Fair CLR 30 0 14% 28 75.77 1009.2
19 13:53 Calm 16.09 Fair CLR 28.3 2.8 19% 27 75.82 1010.1
19 12:53 Vrbl 7 16.09 Fair CLR 26.1 4.4 25% 26 75.9 1010.9
19 11:53 Calm 16.09 Fair CLR 23.9 4.4 28% 25 75.95 1011.6
19 10:53 Calm 16.09 Fair CLR 20.6 4.4 21.1 8.9 35% 76 1012.3
19 09:53 Calm 16.09 Fair CLR 17.8 4.4 41% 76.02 1012.9
19 08:53 Calm 16.09 Fair CLR 16.1 4.4 46% 76.07 1013.3
19 07:53 Calm 16.09 Fair CLR 13.3 4.4 55% 76.05 1013.3
19 06:53 Calm 16.09 Fair CLR 11.1 4.4 64% 76.05 1013.0
19 05:53 Calm 16.09 Fair CLR 9.4 5 74% 76 1012.6
19 04:53 Calm 16.09 Fair CLR 9.4 3.9 17.8 7.8 69% 75.97 1012.2
19 03:53 N 9 16.09 Fair CLR 11.1 3.9 61% 75.97 1012.0
19 02:53 Calm 16.09 Fair CLR 10.6 3.9 64% 75.97 1012.2
19 01:53 NE 7 16.09 Fair CLR 12.2 4.4 59% 75.97 1012.2
19 00:53 Calm 16.09 Fair CLR 15 3.9 48% 75.97 1012.1
18 23:53 Calm 16.09 Fair CLR 17.2 4.4 43% 75.97 1012.1
18 22:53 N 6 16.09 Fair CLR 17.2 5 27.2 16.7 45% 75.95 1012.0
18 21:53 NE 6 16.09 Fair CLR 19.4 5 39% 75.9 1011.3
18 20:53 N 13 16.09 Fair CLR 21.1 4.4 34% 75.82 1010.3
18 19:53 W 6 16.09 Fair CLR 25.6 -6.1 12% 25 75.79 1009.7
18 18:53 W 17 16.09 Fair CLR 26.1 -5 12% 25 75.77 1009.7
18 17:53 W 17 16.09 Fair CLR 26.7 -7.2 10% 26 75.77 1009.7
18 16:53 W 15 16.09 Fair CLR 26.1 -4.4 26.7 17.2 13% 25 75.82 1010.1
18 15:53 Vrbl 6 16.09 Fair CLR 26.1 -6.1 11% 25 75.84 1010.6
18 14:53 NW 13 16.09 Fair CLR 25.6 -4.4 13% 25 75.9 1011.1
18 13:53 W 6 16.09 Fair CLR 23.9 -0.6 20% 24 75.95 1011.9
18 12:53 W 9 16.09 Fair CLR 21.1 2.8 30% 76 1012.6
18 11:53 Vrbl 6 16.09 Fair CLR 19.4 3.3 35% 76.05 1013.4
Date Time (pdt) Wind (kph) Vis. (km) Weather Sky Cond. Air Dwpt Max. Min. Relative Humidity Wind Chill (°C) Heat Index (°C) altimeter (cm) sea level (mb) 1 hr 3 hr 6 hr
6 hour
Temperature (ºC) Pressure Precipitation (cm)